NINGXIA-1 10 (49022 NORAD) Tracking and Keplerian Element Data

This shows tracking and keplerian element data for the satellite.

Feedback or suggestion? Click here.




ElementValue
Catalog49022
NameNINGXIA-1 10
Epoch Orbit289
Epoch Day211.03499777
Epoch Year2021
RAAN358.9543
Inclination45.0017
Eccentricity0.0007605
Argument of Perigee7.2327
Mean Anonmoly352.8743
Mean Motion14.0916806
Decay Rate3.481E-05
L11 49022U 21064E 21211.03499777 .00003481 00000-0 20634-2 0 9996
L22 49022 45.0017 358.9543 0007605 7.2327 352.8743 14.09168060 2898

Live tracking and technical data element details for NINGXIA-1 10 (NORAD 49022). NINGXIA-1 10 can be tracked NOW for your location showing map with azimuth and elevation plus other details from your city location.

Track the satellite on the map from your city or location and see movement details for azimuth, elevation, latitude, longitude, range, height, and movement on the map or in text.







IsCatalogInMostPopularTable: catalog: 49022, numindb: 1
Update: records affected: 1



GetName: 49022 NINGXIA-1 10

Hit Count: updated at: Sat, 31 Jul 2021 15:20:48 GMT